Flag for Germany

Past Weather in Neustadt am Rübenberge, Lower Saxony, Germany — Yesterday and Last 2 Weeks

Now
57 °F

Drizzle. Partly sunny.


Feels Like: 54 °F
Forecast: 60 / 50 °F
Wind: 14 mph from Southwest

Location: Wunstorf Airport

Current Time: Oct 17, 2019 at 10:20:32 am

Latest Report: Oct 17, 2019 at 10:05 am


Visibility: 3 mi

Pressure: 29.80 "Hg

Humidity: 88%

Dew Point: 54 °F

Location of Neustadt am RübenbergeLocation

Past Weather in Neustadt am Rübenberge — Graph

°F

Neustadt am Rübenberge Temperature Yesterday

Maximum temperature yesterday: 61 °F (at 2:50 pm)
Minimum temperature yesterday: 54 °F (at 8:00 am)
Average temperature yesterday: 57 °F

High & Low Weather Summary for the Past Weeks

 TemperatureHumidityPressure
High72 °F (Oct 13, 4:20 pm)100% (Oct 3, 7:20 am)30.15 "Hg (Oct 3, 7:20 am)
Low36 °F (Oct 7, 6:20 am)51% (Oct 5, 4:20 pm)29.59 "Hg (Oct 4, 8:20 pm)
Average55 °F83%29.82 "Hg
* Reported Oct 2 8:20 am — Oct 17 8:20 am, Neustadt am Rübenberge. Weather by CustomWeather, © 2019

Note: Actual official high and low records may vary slightly from our data, if they occured in-between our weather recording intervals... More about our weather records

Advertising

Neustadt am Rübenberge Weather History for the Previous 24 Hours

Scroll right to see more
 ConditionsComfort  
Time TempWeatherWind HumidityBarometerVisibility
8:20 am
Thu, Oct 17
57 °FPartly sunny.14 mph88%29.80 "HgN/A
7:20 am57 °FPassing clouds.9 mph88%29.77 "HgN/A
6:20 am57 °FPassing clouds.10 mph88%29.77 "HgN/A
5:20 am57 °FPassing clouds.12 mph88%29.77 "HgN/A
4:20 am57 °FPassing clouds.9 mph88%29.77 "HgN/A
3:20 am57 °FLight rain. Passing clouds.8 mph88%29.77 "HgN/A
2:20 am59 °FLight rain. Passing clouds.7 mph82%29.80 "HgN/A
1:20 am57 °FPassing clouds.12 mph88%29.77 "HgN/A
12:20 am57 °FPassing clouds.13 mph88%29.77 "HgN/A
11:20 pm
Wed, Oct 16
57 °FPassing clouds.8 mph82%29.80 "HgN/A
10:20 pm57 °FPassing clouds.12 mph82%29.80 "HgN/A
9:20 pm57 °FPassing clouds.8 mph88%29.80 "HgN/A
8:20 pm55 °FPassing clouds.9 mph94%29.80 "HgN/A
7:20 pm57 °FPartly cloudy.12 mph82%29.80 "HgN/A
6:50 pm57 °FPassing clouds.13 mph82%29.80 "HgN/A
6:20 pm59 °FPartly sunny.9 mph72%29.77 "HgN/A
5:20 pm61 °FPartly sunny.8 mph68%29.80 "HgN/A
4:20 pm61 °FScattered clouds.8 mph63%29.80 "HgN/A
3:20 pm61 °FPassing clouds.10 mph63%29.80 "HgN/A
2:50 pm61 °FPassing clouds.9 mph68%29.80 "HgN/A
2:20 pm59 °FScattered clouds.14 mph72%29.80 "HgN/A
1:20 pm57 °FScattered clouds.13 mph77%29.80 "HgN/A
12:20 pm57 °FScattered clouds.16 mph77%29.80 "HgN/A
11:20 am55 °FBroken clouds.12 mph82%29.80 "HgN/A
10:20 am55 °FLight rain. Broken clouds.16 mph88%29.80 "Hg5 mi
Weather by CustomWeather, © 2019

See weather overview